This is the latest recevied weather packets stored in our database for station/object E20ZNR-1. If no packets are shown the sender has not sent any weather packets the latest 10 day(s).
| Time | Temp. | Humidity | Pressure | Rain* | Wind** | Luminosity | Snow |
|---|---|---|---|---|---|---|---|
| 1777891147 | 28.89° C | 95% | 1003 hPa | - | - | 0 W/m² | - |
| 1777889569 | 29.44° C | 96% | 1003 hPa | - | - | 0 W/m² | - |
| 1777889288 | 29.44° C | 96% | 1003 hPa | - | - | 0 W/m² | - |
| 1777888371 | 28.89° C | 96% | 1003 hPa | - | - | 0 W/m² | - |
| 1777887460 | 29.44° C | 93% | 1003 hPa | - | - | 0 W/m² | - |
| 1777886512 | 30.56° C | 86% | 1002 hPa | - | - | 0 W/m² | - |
| 1777885588 | 30.56° C | 86% | 1003 hPa | - | - | 0 W/m² | - |
| 1777884868 | 31.67° C | 76% | 1003 hPa | - | - | 0 W/m² | - |
| 1777884659 | 31.67° C | 76% | 1003 hPa | - | - | 0 W/m² | - |
| 1777883737 | 30° C | 82% | 1003 hPa | - | - | 0 W/m² | - |
| 1777882556 | 28.33° C | 97% | 1004 hPa | - | - | 0 W/m² | - |
| 1777881589 | 30.56° C | 75% | 1004 hPa | - | - | 0 W/m² | - |
| 1777880664 | 33.89° C | 56% | 1004 hPa | - | - | 0 W/m² | - |
| 1777879739 | 36.11° C | 55% | 1004 hPa | - | - | 0 W/m² | - |
| 1777878813 | 35.56° C | 55% | 1004 hPa | - | - | 0 W/m² | - |
| 1777877888 | 35.56° C | 56% | 1004 hPa | - | - | 0 W/m² | - |
| 1777876964 | 35.56° C | 55% | 1004 hPa | - | - | 0 W/m² | - |
| 1777876039 | 36.11° C | 51% | 1005 hPa | - | - | 0 W/m² | - |
| 1777875114 | 36.67° C | 50% | 1005 hPa | - | - | 0 W/m² | - |
| 1777874189 | 37.78° C | 48% | 1005 hPa | - | - | 0 W/m² | - |
| 1777873264 | 37.78° C | 52% | 1005 hPa | - | - | 0 W/m² | - |
| 1777872339 | 36.67° C | 50% | 1006 hPa | - | - | 0 W/m² | - |
| 1777871415 | 37.22° C | 53% | 1006 hPa | - | - | 0 W/m² | - |
| 1777870490 | 36.67° C | 59% | 1006 hPa | - | - | 0 W/m² | - |
| 1777869565 | 36.11° C | 60% | 1006 hPa | - | - | 0 W/m² | - |
* Rain since midnight (hover to see other rain measurements)
** Current wind speed in m/s (hover to see current wind gust speed)